map of MAN home
Great Circle Mapper logo
MAN - Airport
Location
City:  Manchester, England, United Kingdom
Name:Ringway International Airport
ICAO / IATA:EGCC / MAN

Details
Type:Airport (Aerodrome, Airfield)
Use:Public/Civil, International (customs port of entry)
Latitude:5321'13"N (53.353744)
Longitude:216'30"W (-2.274949)
Datum:WGS 1984
Elevation:257 ft (78 m)
Variation:1.9W (WMM2015 magnetic declination)
Runways:2
Longest:10000 × 150 ft (3048 × 45.5 m), paved

Time
Time Zone:UTC+0 (DST+1)
Local Time:

Weather
METAR:EGCC 202050Z 24010KT 9999 FEW018 BKN038 07/05 Q1028 NOSIG
TAF:EGCC 201703Z 2018/2124 27011KT 9999 SCT025
BECMG 2021/2024 21008KT
TEMPO 2101/2124 6000 -RADZ BKN012
TEMPO 2109/2115 22015G25KT
BECMG 2115/2118 23018KT
TEMPO 2115/2124 24025G35KT

Related Locations
Nearby:
Farthest:NZBA: 11826 mi / 19033 km
Balclutha, NZ

Find:

   beyond  
but within

Other Information
Maps:
NOTAMs:
Links:
Sources:

  
flag of United Kingdom
flag of England
  

Sectional Chart

Flight Planning
at skyvector.com

Satellite Image

Google Maps Satellite View

 

Copyright © 2004-2014 Karl L. Swartz. All rights reserved.
The Great Circle Mapper name and logo are trademarks of the Great Circle Mapper.
All other trademarks mentioned herein belong to their respective owners.
Please see credits for attibutions and further copyright information.

  Follow gcmap on Facebook Follow gcmap on Twitter

hCard Microformat

Geo Microformat